FENGYUN 1C DEB, 40688

Orbit data source: Space-Track

FENGYUN 1C DEB, 40688 is space debris in SSO originally from a launch on Mon, 10 May 1999 UTC launched from the Taiyaun Space Center, China (TSC). Fengyun 1C debris stems from the Chinese weather satellite Fengyun-1C, which was intentionally destroyed by a Chinese anti-satellite missile in 2007. This event dramatically increased the amount of space debris, with thousands of trackable fragments posing hazards to satellites and human spaceflight. The Fengyun 1C debris cloud has become a focal point in discussions about space sustainability and the need for international regulations to prevent the creation of new debris.

Loading next visibility...
Identifier
40688, 1999-025EWU
Orbit
SSO
Country
Flag of CNCN / PRC
Related business
Manufacturer
Unknown
Mission
Spacecraft
Bus & Motor
Unknown
Mass
Unknown
Launch date (UTC)
1999-05-10 (26 years ago)
Launch vehicle
Unknown
Launch site
Taiyaun Space Center, China (TSC)
Object type
Payload
Rocket body
Debris
Shape & HBR
Unknown shape, 0.1 m
Radar Cross Section
Small (<0.1 m²)

Expand to show TLE details & history
Last TLE update: 6 days ago

TLE from 6 days ago
0 FENGYUN 1C DEB
1 40688U 99025EWU 25304.66141857  .00000691  00000-0  61083-3 0  9990
2 40688  98.9661  96.1294 0143365 144.5697 216.5085 13.83771920293356
Epoch: 2025-10-31T15:52Z
TLE epoch observation values (Epoch: 2025-10-31T15:52:26.564Z)
Latitude
-0.00008°
Longitude
177.81608°
Altitude
1,038.387 km
Speed
7.29 km/s
True Right ascension
06h 24m 31s
True Declination
0° 00' 00"
Sunlit
Object was in daylight at epoch
Visualization orbit readout
Latitude
Unknown
Longitude
Unknown
Altitude
Unknown
Speed
Unknown
Apparent Right ascension
Unknown
Apparent Declination
Unknown
Sunlit
N/A
Visualization observer readout
Local Sidereal Time
19:04:02
Azimuth
Unknown
Elevation
Unknown
Doppler factor
Unknown
Orbital elements
Apogee altitude
1,052.785 km
Perigee altitude
842.73 km
Semi-major axis
7,325.894 km
Eccentricity
0.01434
Inclination
98.9661°
RAAN
96.1294°
Arg. of periapsis
144.5697°
True anomaly
215.54504°
Mean anomaly
216.5085°
Eccentric anomaly
216.02539°
Mean motion
3.4614 °/min
Orbital period
104 mins
BSTAR
0.00061083
Loading maneuver chart data...
Computing Atmospheric mass density...

Documentation

Showing up to 5 results
|